sat.trackr.live / text

‹ back to catalog

STARLINK-4566

NORAD 53693 · 2022-105AX

PAYLOAD ACTIVE UNKNOWN

§ Identity

Operator
Country
US
Launch date
2022-08-31
Launch site
AFWTR
Launch vehicle
Mass (kg)
RCS (m²)

Purposes: comms

External: N2YO · Heavens-Above · Gunter

§ Orbital elements

Epoch: 2026-05-25T03:02:54.948768Z

Period
95.64 min
Inclination
97.4508°
Eccentricity
0.0001756
Mean motion
15.05609854 rev/d
Perigee alt
548.4 km
Apogee alt
550.9 km
Semi-major
6,927.8 km
B*
5.2173e-4
RAAN
26.2667°
Arg perigee
81.7212°
Mean anomaly
278.4214°
Rev number
20,481

§ Raw data

STARLINK-45661 53693U 22105AX  26145.12702487  .00007469  00000+0  52173-3 0  99912 53693  97.4508  26.2667 0001756  81.7212 278.4214 15.05609854204816

JSON: /api/v1/satellites/53693 · /tle

For live sub-satellite position, see the globe view (requires WebGL).

§ Visibility from observer

Set your observer location to see the next 7 days of passes ≥ 10°. The values pass through the URL so the page stays shareable.

No JS? Fill the form by hand. The geolocation button needs JavaScript.